This is the latest recevied weather packets stored in our database for station/object SQ7IQO. If no packets are shown the sender has not sent any weather packets the latest 10 day(s).
| Time | Temp. | Humidity | Pressure | Rain* | Wind** | Luminosity | Snow |
|---|---|---|---|---|---|---|---|
| 1788089743 | 27.78° C | 42% | 1015.9 hPa | 0 mm | 0.45 m/s, ° | - | - |
| 1788089683 | 27.78° C | 44% | 1015.9 hPa | 0 mm | 0.89 m/s, ° | - | - |
| 1788089623 | 27.78° C | 43% | 1015.9 hPa | 0 mm | 0 m/s | - | - |
| 1788089563 | 27.78° C | 44% | 1015.9 hPa | 0 mm | 0 m/s | - | - |
| 1788089503 | 27.22° C | 43% | 1015.9 hPa | 0 mm | 0 m/s | - | - |
| 1788089443 | 27.22° C | 44% | 1015.9 hPa | 0 mm | 0.45 m/s, ° | - | - |
| 1788089383 | 27.22° C | 43% | 1015.9 hPa | 0 mm | 0.45 m/s, ° | - | - |
| 1788089323 | 27.22° C | 46% | 1015.9 hPa | 0 mm | 0 m/s | - | - |
| 1788089263 | 27.22° C | 44% | 1015.9 hPa | 0 mm | 0.45 m/s, ° | - | - |
| 1788089203 | 27.22° C | 44% | 1015.9 hPa | 0 mm | 0.89 m/s, ° | - | - |
| 1788089143 | 27.22° C | 43% | 1015.9 hPa | 0 mm | 0.45 m/s, ° | - | - |
| 1788089083 | 26.67° C | 46% | 1015.9 hPa | 0 mm | 0.45 m/s, ° | - | - |
| 1788089023 | 26.67° C | 45% | 1015.9 hPa | 0 mm | 0 m/s | - | - |
| 1788088963 | 26.67° C | 44% | 1015.9 hPa | 0 mm | 0.89 m/s, ° | - | - |
| 1788088903 | 26.67° C | 44% | 1016 hPa | 0 mm | 0.89 m/s, ° | - | - |
| 1788088843 | 26.67° C | 45% | 1016 hPa | 0 mm | 0.45 m/s, ° | - | - |
| 1788088783 | 26.11° C | 45% | 1016.1 hPa | 0 mm | 0 m/s | - | - |
| 1788088723 | 26.11° C | 44% | 1016 hPa | 0 mm | 0.45 m/s, ° | - | - |
| 1788088663 | 26.11° C | 44% | 1016 hPa | 0 mm | 0.89 m/s, ° | - | - |
| 1788088603 | 26.67° C | 44% | 1016.1 hPa | 0 mm | 0 m/s | - | - |
| 1788088543 | 26.11° C | 45% | 1016 hPa | 0 mm | 0.89 m/s, ° | - | - |
| 1788088483 | 26.67° C | 45% | 1016.1 hPa | 0 mm | 0.89 m/s, ° | - | - |
| 1788088423 | 26.67° C | 45% | 1016.1 hPa | 0 mm | 0.45 m/s, ° | - | - |
| 1788088363 | 26.67° C | 45% | 1016.1 hPa | 0 mm | 0.45 m/s, ° | - | - |
| 1788088303 | 26.11° C | 46% | 1016.1 hPa | 0 mm | 0 m/s | - | - |
* Rain latest hour (hover to see other rain measurements)
** Current wind speed in m/s (hover to see current wind gust speed)